Date_and_time,latitude,longitude,wind_speed,RelWindDirFrom,WindDirFrom,air_pressure,air_temperature,relative_humidity,Temp,platform_speed_wrt_ground,air_pressure_at_mean_sea_level,platform_orientation
2018-09-20 00:00,50.6304383333333,-96.98077,3.5,5.7,81,994.84,11.7,59,14.26,0.0,1021.74,0.0
2018-09-20 00:10,50.6304383333333,-96.98077,3.4,5.8,58,994.83,11.8,58,14.26,0.0,1021.73,0.0
2018-09-20 00:20,50.6304383333333,-96.98077,3.4,5.8,83,994.89,11.9,58,14.27,0.0,1021.78,0.0
2018-09-20 00:30,50.6304366666667,-96.98078,3.9,5.6,73,994.96,11.8,57,14.28,0.0,1021.84,0.0
2018-09-20 00:40,50.6304383333333,-96.9807733333333,2.5,4.9,79,994.99,11.6,59,14.30,0.0,1021.88,0.0
2018-09-20 00:50,50.63044,-96.98077,3.4,5.3,77,995.06,11.6,59,14.30,0.0,1021.95,0.0
2018-09-20 01:00,50.6304283333333,-96.9807583333333,3.4,5.8,64,995.14,11.6,58,14.29,0.0,1022.05,165.5
2018-09-20 01:10,50.6304383333333,-96.98076,3.8,6.0,63,995.20,11.6,58,14.29,0.0,1022.12,165.5
2018-09-20 01:20,50.6304666666667,-96.9807616666667,2.5,4.2,83,995.22,11.6,58,14.28,0.0,1022.14,165.5
2018-09-20 01:30,50.6304466666667,-96.9807666666667,2.7,4.3,82,995.30,11.6,59,14.27,0.0,1022.22,165.5
2018-09-20 01:40,50.6304416666667,-96.9807683333333,3.2,4.8,87,995.41,11.6,59,14.29,0.0,1022.32,165.5
2018-09-20 01:50,50.63044,-96.9807666666667,2.8,4.3,79,995.46,11.7,59,14.31,0.0,1022.37,165.5
2018-09-20 02:00,50.6304416666667,-96.9807666666667,2.6,4.7,82,995.53,11.6,59,14.31,0.0,1022.44,90.0
2018-09-20 02:10,50.6304416666667,-96.9807666666667,1.8,4.0,76,995.55,11.4,63,14.30,0.0,1022.47,90.0
2018-09-20 02:20,50.6304416666667,-96.9807666666667,0.6,1.9,294,995.59,10.2,69,14.31,0.0,1022.58,90.0
2018-09-20 02:30,50.6304416666667,-96.9807683333333,1.0,1.8,295,995.65,9.4,70,14.32,0.0,1022.68,90.0
2018-09-20 02:40,50.63044,-96.9807683333333,1.4,2.9,248,995.69,8.8,76,14.32,0.0,1022.75,90.0
2018-09-20 02:50,50.6304266666667,-96.98077,2.3,3.0,270,995.74,8.1,80,14.32,0.0,1022.84,90.0
2018-09-20 03:00,50.6304233333333,-96.9807733333333,2.0,2.7,266,995.80,7.9,81,14.32,0.0,1022.91,203.5
2018-09-20 03:10,50.6304266666667,-96.98078,1.9,2.5,281,995.79,8.1,80,14.32,0.0,1022.89,203.5
2018-09-20 03:20,50.6304266666667,-96.9807766666667,1.9,2.8,272,995.80,8.1,81,14.31,0.0,1022.90,203.5
2018-09-20 03:30,50.6304283333333,-96.9807766666667,2.1,2.9,279,995.81,7.5,85,14.31,0.0,1022.93,203.5
2018-09-20 03:40,50.63043,-96.9807766666667,2.2,4.2,269,995.89,7.2,87,14.30,0.0,1023.03,203.5
2018-09-20 03:50,50.6304533333333,-96.9807666666667,2.1,4.5,258,995.96,6.9,87,14.28,0.0,1023.12,203.5
2018-09-20 04:00,50.6304483333333,-96.98077,3.1,5.1,257,995.96,6.7,88,14.26,0.0,1023.14,360.0
2018-09-20 04:10,50.63042,-96.98076,3.6,4.8,266,995.97,6.8,87,14.25,0.0,1023.20,360.0
2018-09-20 04:20,50.6304383333333,-96.9807766666667,3.5,4.3,266,995.93,7.3,82,14.24,0.0,1023.17,360.0
2018-09-20 04:30,50.6304416666667,-96.9807733333333,3.1,4.2,277,995.89,7.5,80,14.24,0.0,1023.15,360.0
2018-09-20 04:40,50.6304416666667,-96.980775,3.6,4.5,279,995.89,7.1,83,14.23,0.0,1023.21,360.0
2018-09-20 04:50,50.6304416666667,-96.9807733333333,4.1,5.1,282,995.91,7.0,82,14.22,0.0,1023.24,360.0
2018-09-20 05:00,50.6304416666667,-96.9807733333333,4.0,5.4,273,995.96,6.4,87,14.22,0.0,1023.32,270.0
2018-09-20 05:10,50.63044,-96.9807766666667,4.3,6.1,274,995.90,5.7,90,14.21,0.0,1023.29,270.0
2018-09-20 05:20,50.63044,-96.9807633333333,4.0,5.8,267,995.92,5.4,92,14.20,0.0,1023.36,270.0
2018-09-20 05:30,50.63044,-96.9807633333333,3.9,5.7,258,996.00,5.8,89,14.19,0.0,1023.43,270.0
2018-09-20 05:40,50.6304383333333,-96.9807633333333,3.8,5.2,257,996.00,6.0,87,14.18,0.0,1023.44,270.0
2018-09-20 05:50,50.6304366666667,-96.9807616666667,2.9,4.6,260,996.00,6.0,88,14.18,0.0,1023.45,270.0
2018-09-20 06:00,50.6304333333333,-96.98076,4.0,5.3,267,995.98,5.4,89,14.17,0.0,1023.45,60.8
2018-09-20 06:10,50.63041,-96.9807566666667,4.7,5.8,267,995.97,5.0,92,14.17,0.0,1023.44,60.8
2018-09-20 06:20,50.630435,-96.9807666666667,5.1,6.5,268,995.96,5.1,92,14.16,0.0,1023.41,60.8
2018-09-20 06:30,50.6304383333333,-96.9807683333333,4.7,5.4,269,995.89,5.1,90,14.15,0.0,1023.36,60.8
2018-09-20 06:40,50.6304366666667,-96.9807666666667,4.4,5.4,269,995.89,5.2,90,14.14,0.0,1023.36,60.8
2018-09-20 06:50,50.6304366666667,-96.9807683333333,2.8,4.5,261,995.88,5.4,91,14.14,0.0,1023.37,60.8
2018-09-20 07:00,50.6304366666667,-96.9807666666667,4.0,5.1,284,995.71,5.2,91,14.13,0.0,1023.24,360.0
2018-09-20 07:10,50.6304383333333,-96.9807666666667,2.7,4.6,274,995.63,4.9,94,14.12,0.0,1023.19,360.0
2018-09-20 07:20,50.63044,-96.9807666666667,4.0,5.3,289,995.44,5.0,92,14.11,0.0,1022.96,360.0
2018-09-20 07:30,50.6304416666667,-96.9807666666667,5.6,6.2,286,995.36,5.4,88,14.10,0.0,1022.86,360.0
2018-09-20 07:40,50.6304533333333,-96.980775,4.2,5.2,293,995.31,6.0,84,14.08,0.0,1022.77,360.0
2018-09-20 07:50,50.6304266666667,-96.9807683333333,2.9,3.7,290,995.31,6.3,83,14.07,0.0,1022.78,360.0
2018-09-20 08:00,50.630435,-96.9807666666667,2.5,4.3,273,995.27,6.0,87,14.06,0.0,1022.78,131.7
2018-09-20 08:10,50.630445,-96.980775,3.4,4.4,309,995.11,6.1,85,14.06,0.0,1022.60,131.7
2018-09-20 08:20,50.6304416666667,-96.9807766666667,2.9,4.0,307,994.96,6.0,85,14.06,0.0,1022.46,131.7
2018-09-20 08:30,50.6304416666667,-96.980775,3.3,4.0,305,994.77,5.7,86,14.06,0.0,1022.27,131.7
2018-09-20 08:40,50.6304266666667,-96.9807616666667,2.3,3.1,301,994.73,5.0,90,14.06,0.0,1022.25,131.7
2018-09-20 08:50,50.6304366666667,-96.9807533333333,2.3,3.0,270,994.75,4.6,92,14.06,0.0,1022.31,131.7
2018-09-20 09:00,50.6304333333333,-96.9807566666667,1.9,3.4,267,994.84,4.6,94,14.05,0.0,1022.41,0.0
2018-09-20 09:10,50.6304233333333,-96.98077,1.3,2.7,261,995.01,4.6,96,14.03,0.0,1022.59,0.0
2018-09-20 09:20,50.6304433333333,-96.98082,2.0,2.8,245,995.09,4.1,96,14.02,0.0,1022.67,0.0
2018-09-20 09:30,50.6304283333333,-96.9807833333333,3.0,4.7,261,995.02,3.5,97,14.02,0.0,1022.60,0.0
2018-09-20 09:40,50.6304283333333,-96.98078,2.5,4.2,275,994.98,3.7,97,14.01,0.0,1022.53,0.0
2018-09-20 09:50,50.630435,-96.98077,3.2,5.2,284,994.97,3.5,96,14.01,0.0,1022.54,0.0
2018-09-20 10:00,50.6304333333333,-96.980775,3.0,4.1,284,995.06,3.7,96,14.00,0.0,1022.63,228.3
2018-09-20 10:10,50.6304116666667,-96.9807666666667,2.1,3.5,264,995.28,3.9,97,13.99,0.0,1022.86,228.3
2018-09-20 10:20,50.6304383333333,-96.9807533333333,1.9,3.3,235,995.47,4.0,98,13.97,0.0,1023.05,228.3
2018-09-20 10:30,50.6304466666667,-96.9807866666667,2.3,3.8,249,995.52,3.5,99,13.97,0.0,1023.17,228.3
2018-09-20 10:40,50.6304383333333,-96.980765,2.7,3.8,245,995.62,3.4,99,13.96,0.0,1023.29,228.3
2018-09-20 10:50,50.6304383333333,-96.9807616666667,3.2,5.9,246,995.58,3.2,99,13.95,0.0,1023.26,228.3
2018-09-20 11:00,50.6304416666667,-96.9807633333333,3.7,5.0,251,995.73,3.1,99,13.94,0.0,1023.42,38.0
2018-09-20 11:10,50.6304433333333,-96.9807666666667,3.9,5.4,240,995.72,3.8,99,13.93,0.0,1023.40,38.0
2018-09-20 11:20,50.6304433333333,-96.9807683333333,2.6,3.7,244,995.72,4.1,97,13.91,0.0,1023.41,38.0
2018-09-20 11:30,50.6304433333333,-96.9807683333333,3.1,4.3,238,995.77,3.9,97,13.90,0.0,1023.47,38.0
2018-09-20 11:40,50.6304433333333,-96.98077,2.0,3.1,246,995.55,4.0,99,13.89,0.0,1023.25,38.0
2018-09-20 11:50,50.6304433333333,-96.9807683333333,2.1,3.8,254,995.57,3.9,98,13.88,0.0,1023.26,38.0
2018-09-20 12:00,50.6304433333333,-96.9807666666667,2.0,3.7,252,995.42,3.8,99,13.88,0.0,1023.10,318.7
2018-09-20 12:10,50.6304416666667,-96.9807666666667,3.0,4.0,271,995.31,3.6,99,13.87,0.0,1023.00,318.7
2018-09-20 12:20,50.6304416666667,-96.9807666666667,1.8,3.7,271,995.24,3.7,99,13.86,0.0,1022.94,318.7
2018-09-20 12:30,50.6304433333333,-96.9807666666667,2.7,3.5,276,995.16,4.0,99,13.85,0.0,1022.85,318.7
2018-09-20 12:40,50.6304533333333,-96.9807933333333,2.9,3.6,274,995.19,4.1,99,13.83,0.0,1022.88,318.7
2018-09-20 12:50,50.6304333333333,-96.9807766666667,2.8,4.0,273,995.25,4.3,99,13.79,0.0,1022.94,318.7
2018-09-20 13:00,50.630435,-96.98077,2.9,4.0,271,995.33,4.3,99,13.76,0.0,1022.99,48.3
2018-09-20 13:10,50.6304366666667,-96.980775,3.3,4.2,271,995.43,4.5,99,13.75,0.0,1023.07,48.3
2018-09-20 13:20,50.6304383333333,-96.9807733333333,3.6,5.1,275,995.25,4.3,98,13.74,0.0,1022.90,48.3
2018-09-20 13:30,50.6304383333333,-96.9807683333333,3.9,5.1,280,995.25,4.2,99,13.74,0.0,1022.90,48.3
2018-09-20 13:40,50.6304383333333,-96.9807666666667,3.3,4.6,285,995.37,4.5,99,13.73,0.0,1023.02,48.3
2018-09-20 13:50,50.63044,-96.9807666666667,3.4,4.6,291,995.35,4.9,98,13.71,0.0,1022.98,48.3
2018-09-20 14:00,50.63044,-96.980765,3.3,4.3,292,995.28,5.3,98,13.65,0.0,1022.90,90.0
2018-09-20 14:10,50.6304416666667,-96.9807666666667,3.2,4.3,293,995.33,5.6,97,13.60,0.0,1022.93,90.0
2018-09-20 14:20,50.6304416666667,-96.980765,2.5,3.9,291,995.17,5.9,97,13.57,0.0,1022.73,90.0
2018-09-20 14:30,50.630455,-96.9807583333333,2.2,2.9,284,995.13,6.4,95,13.55,0.0,1022.66,90.0
2018-09-20 14:40,50.6304266666667,-96.98077,2.2,3.2,286,995.10,6.8,94,13.57,0.0,1022.59,90.0
2018-09-20 14:50,50.6304316666667,-96.9807666666667,1.8,3.1,281,995.04,7.4,93,13.56,0.0,1022.51,90.0
2018-09-20 15:00,50.6304316666667,-96.9807633333333,1.4,2.4,286,995.02,8.0,92,13.57,0.0,1022.45,142.0
2018-09-20 15:10,50.630435,-96.980765,1.8,2.8,317,994.89,8.8,90,13.57,0.0,1022.29,142.0
2018-09-20 15:20,50.630435,-96.9807633333333,2.3,3.2,330,994.77,9.2,90,13.58,0.0,1022.14,142.0
2018-09-20 15:30,50.630435,-96.9807616666667,2.6,3.6,342,994.64,9.7,89,13.59,0.0,1021.98,142.0
2018-09-20 15:40,50.6304383333333,-96.98077,3.2,4.6,0,994.58,10.3,86,13.61,0.0,1021.87,142.0
2018-09-20 15:50,50.6304416666667,-96.9807783333333,4.8,6.9,9,994.46,10.6,81,13.63,0.0,1021.70,142.0
2018-09-20 16:00,50.6304416666667,-96.980775,5.1,6.8,9,994.21,10.7,83,13.65,0.0,1021.43,311.7
2018-09-20 16:10,50.63042,-96.9807733333333,7.3,11.0,14,993.99,10.9,82,13.66,0.0,1021.18,311.7
2018-09-20 16:20,50.6304283333333,-96.98078,8.1,10.6,15,993.85,11.0,81,13.67,0.0,1021.00,311.7
2018-09-20 16:30,50.6304316666667,-96.9807783333333,8.5,11.7,30,993.74,11.1,77,13.68,0.0,1020.87,311.7
2018-09-20 16:40,50.630425,-96.9807833333333,7.7,10.4,41,993.58,11.4,61,13.69,0.0,1020.66,311.7
2018-09-20 16:50,50.6304233333333,-96.98078,7.9,10.1,47,993.37,11.6,58,13.69,0.0,1020.41,311.7
2018-09-20 17:00,50.6304283333333,-96.9807783333333,9.6,11.7,50,993.25,11.5,58,13.68,0.0,1020.25,211.1
2018-09-20 17:10,50.63043,-96.9807766666667,10.5,12.6,51,993.01,11.5,59,13.68,0.0,1019.98,211.1
2018-09-20 17:20,50.6304333333333,-96.9807683333333,10.2,12.8,47,992.83,11.6,62,13.69,0.0,1019.77,211.1
2018-09-20 17:30,50.63044,-96.9807733333333,10.3,12.6,51,992.81,11.6,61,13.69,0.0,1019.73,211.1
2018-09-20 17:40,50.63043,-96.9807666666667,11.1,14.8,53,992.56,11.5,62,13.65,0.0,1019.46,211.1
2018-09-20 17:50,50.630425,-96.9807683333333,12.3,14.4,51,992.39,11.5,62,13.63,0.0,1019.28,211.1
2018-09-20 18:00,50.6304116666667,-96.9807866666667,12.3,15.0,49,992.24,11.5,60,13.63,0.0,1019.12,228.4
2018-09-20 18:10,50.6304216666667,-96.98078,11.7,14.1,48,992.22,11.5,60,13.65,0.0,1019.08,228.4
2018-09-20 18:20,50.63041,-96.9807833333333,11.8,14.0,49,992.09,11.5,60,13.64,0.0,1018.95,228.4
2018-09-20 18:30,50.6304133333333,-96.9807783333333,12.2,15.1,48,991.97,11.4,59,13.62,0.0,1018.81,228.4
2018-09-20 18:40,50.6304116666667,-96.980775,11.8,14.9,49,991.97,11.4,59,13.59,0.0,1018.80,228.4
2018-09-20 18:50,50.63041,-96.9807766666667,13.6,16.1,49,991.86,11.5,59,13.59,0.0,1018.69,228.4
2018-09-20 19:00,50.6304083333333,-96.9807783333333,12.4,15.5,53,991.82,11.5,59,13.58,0.0,1018.66,203.5
2018-09-20 19:10,50.6304216666667,-96.98078,12.5,15.3,52,991.80,11.5,58,13.59,0.0,1018.63,203.5
2018-09-20 19:20,50.6304183333333,-96.9807783333333,11.9,15.5,51,991.81,11.5,58,13.63,0.0,1018.63,203.5
2018-09-20 19:30,50.6304183333333,-96.9807816666667,13.1,15.5,45,991.53,11.5,59,13.64,0.0,1018.35,203.5
2018-09-20 19:40,50.6304016666667,-96.9807783333333,13.0,15.7,51,991.35,11.6,59,13.64,0.0,1018.17,203.5
2018-09-20 19:50,50.6304083333333,-96.98077,12.4,16.5,50,991.29,11.5,57,13.65,0.0,1018.10,203.5
2018-09-20 20:00,50.6304033333333,-96.9807716666667,12.5,15.6,50,991.15,11.6,57,13.66,0.0,1017.96,147.9
2018-09-20 20:10,50.63042,-96.9807616666667,13.3,17.3,45,990.88,11.6,57,13.67,0.0,1017.68,147.9
2018-09-20 20:20,50.63042,-96.9807616666667,13.8,17.0,45,990.41,11.6,57,13.68,0.0,1017.21,147.9
2018-09-20 20:30,50.63042,-96.980765,14.9,18.1,51,990.12,11.6,58,13.68,0.0,1016.90,147.9
2018-09-20 20:40,50.6304183333333,-96.9807633333333,14.0,17.7,45,990.04,11.6,57,13.68,0.0,1016.82,147.9
2018-09-20 20:50,50.6304166666667,-96.9807633333333,14.7,18.3,39,989.87,11.7,59,13.67,0.0,1016.64,147.9
2018-09-20 21:00,50.6304183333333,-96.980765,15.3,21.0,39,989.57,11.7,57,13.67,0.0,1016.33,90.0
2018-09-20 21:10,50.63041,-96.98079,16.6,19.6,39,989.34,11.8,56,13.66,0.0,1016.09,90.0
2018-09-20 21:20,50.6304283333333,-96.9807733333333,16.5,20.2,36,989.23,11.7,57,13.66,0.0,1015.97,90.0
2018-09-20 21:30,50.63042,-96.980765,16.2,19.2,39,989.15,11.7,57,13.65,0.0,1015.89,90.0
2018-09-20 21:40,50.63042,-96.98077,16.0,19.6,35,989.10,11.7,59,13.64,0.0,1015.85,90.0
2018-09-20 21:50,50.63042,-96.9807683333333,16.7,20.1,33,989.05,11.7,59,13.64,0.0,1015.79,90.0
2018-09-20 22:00,50.6304216666667,-96.98077,15.8,19.4,39,989.08,11.8,60,13.65,0.0,1015.81,49.4
2018-09-20 22:10,50.63039,-96.9807633333333,16.4,19.3,38,989.17,11.8,59,13.66,0.0,1015.91,49.4
2018-09-20 22:20,50.63042,-96.9807716666667,15.5,18.6,42,989.19,11.9,59,13.66,0.0,1015.92,49.4
2018-09-20 22:30,50.6304216666667,-96.98077,15.4,18.5,45,989.19,11.9,58,13.65,0.0,1015.92,49.4
2018-09-20 22:40,50.6304433333333,-96.980775,16.1,19.8,49,989.12,12.0,57,13.64,0.0,1015.85,49.4
2018-09-20 22:50,50.6304316666667,-96.98077,15.6,20.0,46,989.09,12.0,57,13.63,0.0,1015.81,49.4
2018-09-20 23:00,50.6304283333333,-96.9807683333333,15.4,19.7,46,988.98,12.0,58,13.62,0.0,1015.70,27.6
2018-09-20 23:10,50.6304283333333,-96.9807683333333,15.3,18.3,42,988.97,12.1,58,13.62,0.0,1015.69,27.6
2018-09-20 23:20,50.63043,-96.98077,16.2,20.4,50,988.96,12.1,57,13.63,0.0,1015.68,27.6
2018-09-20 23:30,50.6304316666667,-96.98077,16.1,19.8,46,988.90,12.0,57,13.63,0.0,1015.61,27.6
